Weather History for LHSN - May, 2013

Change the Weather History Date:

Sunday, May 5, 2013

  Actual Average (LHBP) Record (LHBP)
Temperature  
Mean Temperature 62 °F -  
Max Temperature 73 °F 68 °F 80 °F (2003)
Min Temperature 51 °F 46 °F 32 °F (2011)
Degree Days  
Heating Degree Days 3    
Growing Degree Days 12 (Base 50)    
Moisture  
Dew Point 54 °F    
Average Humidity 74    
Maximum Humidity 100    
Minimum Humidity 57    
Precipitation  
Precipitation 0.00 in - - ()
Sea Level Pressure  
Sea Level Pressure 30.12 in    
Wind  
Wind Speed 6 mph ()    
Max Wind Speed 11 mph    
Max Gust Speed -    
Visibility 5.6 miles    
Events Rain , Thunderstorm    
Averages and records for this station are not official NWS values.
T = Trace of Precipitation, MM = Missing Value Source: Averaged Metar Reports

Daily Weather History Graph

Daily Weather History Graph

Search for Another Location

Airport or City:

Trip Planner

Search our weather history database for the weather conditions in past years. The results will help you decide how hot, cold, wet, or windy it might be!

Date:

Astronomy

May. 05, 2013 Rise Set
Actual Time 5:17 AM CEST 7:55 PM CEST
Civil Twilight 4:42 AM CEST 8:30 PM CEST
Nautical Twilight 3:58 AM CEST 9:13 PM CEST
Astronomical Twilight 3:08 AM CEST 10:05 PM CEST
Moon 2:56 AM CEST (5/5) 3:19 PM CEST (5/5)
Length of Visible Light 15h 47m
Length of Day
14h 38m
Waning Crescent, 20% of the Moon is Illuminated
May 5
Waning Crescent
May 10
New
May 18
First Quarter
May 25
Full
May 31
Last Quarter

Hourly Weather History & Observations

Time (CEST) Temp. Dew Point Humidity Pressure Visibility Wind Dir Wind Speed Gust Speed Precip Events Conditions
12:15 AM 57.2 °F 51.8 °F 82% 30.06 in - NW 4.5 mph - N/A   Clear
12:45 AM 55.4 °F 50.0 °F 82% 30.06 in - NW 4.5 mph - N/A   Clear
1:15 AM 57.2 °F 51.8 °F 82% 30.06 in - NW 6.7 mph - N/A   Clear
1:45 AM 55.4 °F 51.8 °F 88% 30.06 in - NW 4.5 mph - N/A   Clear
2:15 AM 55.4 °F 51.8 °F 88% 30.06 in - North 4.5 mph - N/A   Clear
2:45 AM 53.6 °F 51.8 °F 94% 30.06 in - North 4.5 mph - N/A   Clear
3:15 AM 53.6 °F 51.8 °F 94% 30.06 in - NE 4.5 mph - N/A   Clear
3:45 AM 51.8 °F 51.8 °F 100% 30.06 in - NE 4.5 mph - N/A   Clear
4:15 AM 53.6 °F 51.8 °F 94% 30.09 in - NE 4.5 mph - N/A   Clear
4:45 AM 53.6 °F 50.0 °F 88% 30.09 in - NE 4.5 mph - N/A   Clear
5:15 AM 51.8 °F 50.0 °F 94% 30.09 in - NE 6.7 mph - N/A   Clear
5:45 AM 51.8 °F 50.0 °F 94% 30.09 in - NE 4.5 mph - N/A   Clear
6:15 AM 53.6 °F 51.8 °F 94% 30.09 in - NE 6.7 mph - N/A   Clear
6:45 AM 55.4 °F 53.6 °F 94% 30.12 in - NE 6.7 mph - N/A   Clear
7:15 AM 57.2 °F 53.6 °F 88% 30.12 in - NE 6.7 mph - N/A   Clear
7:45 AM 59.0 °F 53.6 °F 82% 30.12 in - NE 11.2 mph - N/A   Clear
8:15 AM 59.0 °F 51.8 °F 77% 30.15 in - ENE 11.2 mph - N/A   Clear
8:45 AM 60.8 °F 51.8 °F 72% 30.15 in - ENE 8.9 mph - N/A   Clear
9:15 AM 62.6 °F 53.6 °F 72% 30.15 in - NE 8.9 mph - N/A   Clear
9:45 AM - - N/A% - - NE 8.9 mph - N/A   Clear
10:15 AM 64.4 °F 55.4 °F 73% 30.15 in - NE 6.7 mph - N/A   Clear
10:45 AM 68.0 °F 55.4 °F 64% 30.15 in - NE 6.7 mph - N/A   Clear
11:15 AM 68.0 °F 55.4 °F 64% 30.15 in - NNE 6.7 mph - N/A   Clear
11:45 AM 69.8 °F 57.2 °F 64% 30.15 in - NE 6.7 mph - N/A   Clear
12:15 PM 69.8 °F 55.4 °F 60% 30.15 in - North 4.5 mph - N/A   Clear
12:45 PM - - N/A% - - NNE 6.7 mph - N/A   Clear
1:15 PM 71.6 °F 55.4 °F 57% 30.12 in 6.2 mi ENE 8.9 mph - N/A   Scattered Clouds
1:45 PM 71.6 °F 57.2 °F 60% 30.15 in 6.2 mi NE 6.7 mph - N/A   Mostly Cloudy
2:15 PM 71.6 °F 57.2 °F 60% 30.12 in 6.2 mi ENE 8.9 mph - N/A   Mostly Cloudy
2:45 PM 73.4 °F 57.2 °F 57% 30.12 in 6.2 mi NE 6.7 mph - N/A   Mostly Cloudy
3:15 PM 73.4 °F 59.0 °F 61% 30.12 in 6.2 mi NE 6.7 mph - N/A   Mostly Cloudy
3:45 PM 71.6 °F 59.0 °F 64% 30.12 in 6.2 mi NNE 8.9 mph - N/A   Mostly Cloudy
4:15 PM 73.4 °F 57.2 °F 57% 30.12 in - NE 6.7 mph - N/A   Clear
4:45 PM 73.4 °F 57.2 °F 57% 30.12 in 6.2 mi NNE 4.5 mph - N/A   Scattered Clouds
5:15 PM 73.4 °F 57.2 °F 57% 30.12 in 6.2 mi NE 6.7 mph - N/A   Mostly Cloudy
5:45 PM 71.6 °F 57.2 °F 60% 30.12 in 6.2 mi NE 6.7 mph - N/A   Mostly Cloudy
6:15 PM 69.8 °F 57.2 °F 64% 30.12 in - NE 6.7 mph - N/A   Clear
6:45 PM - - N/A% - 3.1 mi NE 6.7 mph - N/A Rain , Thunderstorm Light Rain Showers
7:15 PM 68.0 °F 57.2 °F 68% 30.09 in - NNE 6.7 mph - N/A   Clear
7:45 PM 66.2 °F 57.2 °F 73% 30.09 in - NNE 6.7 mph - N/A   Clear
8:15 PM 66.2 °F 57.2 °F 73% 30.12 in - NE 6.7 mph - N/A   Clear
8:45 PM 66.2 °F 55.4 °F 68% 30.12 in - NE 6.7 mph - N/A   Clear
9:15 PM 64.4 °F 55.4 °F 73% 30.45 in - NE 6.7 mph - N/A   Clear
9:45 PM - - N/A% - 3.1 mi NE 6.7 mph - N/A Rain , Thunderstorm Light Rain Showers
10:15 PM 66.2 °F 51.8 °F 60% 30.12 in - NE 11.2 mph - N/A   Clear
10:45 PM 66.2 °F 51.8 °F 60% 30.12 in - NE 6.7 mph - N/A   Clear
11:45 PM 64.4 °F 51.8 °F 64% 30.09 in - NE 2.2 mph - N/A   Clear